Theta_e
346 345 346 346 344 344 343 345 346 346 347 347 347 346 345 345 345 346 347 347 345 347 347 345 343 343 343 341 339 338 339 340 340 340 340 339 336 335 337 340 339 337 337 336 339 343 342 341 341 341 342 344 343 343 344 345 344 345 346 344 343 342 340
348 346 347 347 346 346 343 343 345 344 345 346 346 346 346 346 346 347 346 344 342 345 347 345 343 342 343 341 338 339 340 341 341 339 340 341 340 338 340 341 341 337 335 335 338 342 343 343 343 341 342 343 343 344 345 346 345 345 345 342 340 337 337
348 348 347 346 347 348 346 346 346 345 346 347 346 346 346 346 347 347 344 340 340 344 346 345 343 342 342 342 339 340 342 342 341 340 340 342 342 342 342 342 342 340 337 337 338 340 342 344 343 341 340 340 342 344 346 347 346 344 342 341 340 339 338
346 347 346 346 349 351 350 348 349 349 349 348 347 346 347 347 346 346 344 341 340 343 345 344 344 343 342 342 340 341 342 341 340 340 340 341 342 342 343 342 343 343 342 342 342 341 342 344 345 342 340 340 340 342 345 347 347 345 342 341 341 342 340
345 347 347 348 350 352 352 351 351 352 351 350 349 347 348 348 346 346 346 344 341 342 344 344 344 343 341 340 340 340 341 338 338 340 340 340 342 342 343 343 343 344 345 345 345 345 344 345 347 345 343 342 342 341 344 346 347 346 344 343 343 343 342
348 349 349 349 350 351 352 352 352 353 352 352 351 350 349 349 347 347 347 346 344 342 343 344 344 343 341 341 339 339 338 337 337 340 341 341 342 342 342 342 343 344 345 347 347 346 345 346 348 347 345 345 345 344 344 345 346 347 346 344 343 342 341
350 350 350 349 350 350 351 351 352 354 354 353 353 352 351 350 348 347 347 347 346 344 342 343 344 343 341 342 341 338 337 338 339 342 342 341 341 342 343 343 343 344 345 346 347 347 346 347 348 347 347 347 347 347 347 346 346 346 346 345 342 340 339
351 350 350 349 350 350 350 350 351 353 354 353 353 353 351 350 349 348 348 348 348 346 342 341 343 343 341 341 340 339 337 338 340 343 343 343 341 341 343 345 344 344 344 345 346 347 347 348 348 347 348 348 347 348 348 347 345 345 345 345 341 338 338
351 350 350 350 350 351 350 350 350 351 352 352 352 352 350 349 349 348 348 348 348 348 345 342 341 341 341 341 340 339 339 340 342 343 343 343 342 341 341 342 342 343 344 344 345 346 346 347 347 347 347 348 348 348 348 348 346 344 343 343 341 338 337
352 352 351 350 351 352 351 351 351 351 351 351 352 353 351 349 349 348 348 348 348 348 348 345 343 342 341 341 341 341 340 341 342 343 342 342 342 341 340 341 342 342 344 344 344 345 346 346 346 345 346 347 347 346 346 347 346 345 344 343 342 339 337
353 353 353 353 352 353 352 351 352 351 350 350 351 351 351 349 348 348 347 347 346 347 348 348 348 347 344 341 341 341 340 340 341 342 341 340 341 341 341 343 343 343 344 343 343 344 345 345 346 345 345 345 346 345 345 345 344 344 345 344 344 342 340
354 353 353 353 353 353 352 350 351 351 350 349 349 348 348 348 348 348 347 347 346 346 348 349 350 352 350 347 345 343 340 338 338 339 340 339 339 340 342 344 343 343 344 343 343 344 344 345 346 345 345 345 345 345 345 345 344 343 343 344 345 345 344
352 352 351 352 353 353 353 351 350 350 349 349 349 348 347 347 348 349 348 348 347 346 347 348 350 352 352 351 350 348 343 338 336 339 341 341 339 338 341 344 344 343 343 343 343 344 344 345 344 345 344 344 344 345 344 345 346 344 343 344 345 345 345
350 350 350 350 351 351 352 351 351 351 350 350 350 349 349 348 348 349 349 348 348 347 346 347 349 351 351 350 350 350 348 342 340 343 345 345 343 339 339 342 345 344 343 342 343 343 344 344 344 344 344 344 344 344 344 345 346 345 345 345 344 344 344
351 350 350 349 349 350 350 349 351 351 352 352 352 352 351 350 351 351 350 348 348 347 346 346 347 349 350 350 349 350 349 347 345 346 347 347 347 344 341 340 343 344 342 342 343 343 343 344 344 344 344 344 344 344 344 345 346 346 346 346 345 344 344
350 350 350 349 350 350 348 348 349 349 350 353 353 354 353 351 351 351 350 349 348 347 347 346 346 347 348 349 349 349 350 349 348 348 348 348 348 348 346 343 341 342 342 343 343 344 344 343 344 343 343 344 345 345 345 345 345 346 346 346 346 345 345
349 350 350 350 350 349 348 349 350 349 349 351 352 353 353 350 350 349 348 350 349 348 347 347 346 346 347 348 348 349 350 350 349 349 348 348 348 348 348 346 344 344 344 344 344 344 345 346 345 344 343 345 346 345 345 345 345 345 345 346 346 346 346
347 348 349 350 349 349 349 350 350 349 349 350 350 352 352 352 352 351 350 350 350 349 348 347 347 346 346 346 346 347 349 350 350 349 349 348 348 348 348 348 347 346 346 346 346 346 346 347 347 345 343 345 346 346 346 346 347 347 345 344 345 347 347
344 346 349 349 349 350 350 350 350 349 350 350 350 350 350 351 352 352 352 351 351 351 351 349 348 347 347 348 347 348 349 350 349 349 348 348 348 348 348 348 348 348 347 347 347 347 346 347 347 345 345 345 346 346 347 348 348 350 348 345 344 346 348
344 346 349 349 348 349 349 349 350 349 349 350 349 350 349 349 350 351 352 352 352 352 352 352 351 350 348 349 349 349 350 350 350 349 348 347 347 347 348 348 347 348 348 347 347 347 346 346 346 346 346 345 345 346 348 348 349 349 350 348 346 346 347
346 347 347 348 349 349 349 349 349 349 349 349 349 349 349 348 348 349 349 350 351 352 352 353 353 353 351 350 350 350 349 349 349 349 348 348 346 346 347 347 347 347 348 348 347 347 346 346 346 346 346 346 346 346 347 348 348 348 349 350 350 349 349
346 345 345 346 347 348 349 348 348 348 348 348 348 348 349 348 348 348 348 348 349 350 352 352 352 352 352 352 352 352 352 351 349 348 348 348 347 347 347 348 348 349 348 348 347 347 347 346 346 346 346 346 346 346 347 348 348 348 348 349 351 352 351
344 344 345 345 345 347 347 346 346 347 346 347 347 347 347 347 347 347 347 347 347 348 350 351 351 351 351 351 351 352 352 353 352 351 349 349 348 348 348 349 349 349 349 349 348 347 347 347 346 346 346 346 346 347 348 348 348 348 348 348 350 352 352
344 345 346 346 346 346 346 346 346 345 345 345 346 346 346 346 346 346 346 346 347 347 348 349 350 350 350 350 350 351 352 352 352 352 352 352 351 351 350 350 351 351 351 351 350 349 348 347 347 347 347 347 347 347 348 349 348 348 348 348 349 350 350
345 345 345 345 345 344 345 346 345 344 344 344 345 346 346 346 346 347 347 346 346 346 347 348 349 349 349 350 350 350 351 351 351 351 352 352 352 351 351 351 351 352 352 352 351 350 349 347 347 346 346 346 347 348 348 348 348 348 349 349 349 349 349
344 344 344 344 345 344 345 345 344 343 344 344 345 345 345 346 347 346 346 346 346 346 346 347 347 346 347 347 348 348 349 349 350 350 350 351 351 351 351 351 351 351 351 351 351 350 349 348 348 348 346 346 346 347 348 348 348 349 349 349 349 349 349
343 344 344 344 344 344 344 343 342 343 344 344 344 343 343 345 346 345 345 345 345 346 345 344 344 344 345 346 346 346 346 347 347 348 348 349 350 350 351 351 351 351 350 351 352 352 351 350 350 349 348 346 346 347 347 348 349 349 349 348 349 349 349
343 344 343 344 344 343 342 342 342 343 344 344 343 343 343 344 344 345 345 344 345 346 345 344 343 343 343 343 344 344 344 345 346 347 347 348 348 349 350 351 351 351 351 351 352 352 352 351 350 349 348 348 347 346 347 348 348 347 348 348 347 348 348
344 343 344 344 343 343 342 342 342 342 342 342 343 343 343 343 344 345 344 344 345 345 344 344 344 343 342 342 341 339 339 341 344 346 348 349 349 349 349 350 350 350 351 352 352 352 352 352 351 350 348 347 348 348 347 347 347 347 347 347 347 347 347
344 344 344 344 343 343 343 341 341 340 340 341 343 344 343 343 344 345 344 345 345 344 344 344 343 343 343 342 340 337 337 338 340 343 346 348 349 350 350 350 350 350 351 352 352 353 352 351 351 351 349 347 347 348 348 348 348 347 347 347 347 347 348
343 343 343 343 342 342 341 340 340 340 341 343 343 343 343 343 344 344 344 344 344 344 344 343 342 342 343 341 340 338 337 338 340 341 342 343 346 348 349 349 350 350 350 351 351 352 352 351 350 351 350 349 348 348 348 348 348 348 348 348 347 348 349
343 343 343 342 342 341 340 340 341 341 342 343 343 343 343 343 343 343 344 344 344 343 342 342 341 341 341 341 341 341 339 340 341 342 342 342 344 346 348 349 349 350 350 351 351 351 351 351 351 351 351 350 350 349 348 348 349 349 349 348 348 348 350
343 343 343 342 341 340 340 340 341 340 341 342 343 343 343 342 343 343 343 343 343 342 342 342 341 340 340 340 340 340 340 340 341 343 344 343 344 345 347 348 349 349 349 350 350 350 350 350 351 352 351 351 351 350 349 349 349 349 349 348 348 349 350
343 342 342 341 340 339 339 339 338 337 338 340 342 342 342 342 343 342 342 343 342 342 343 342 341 340 339 339 339 339 339 340 341 343 344 344 344 344 345 346 347 347 348 348 349 350 350 350 351 351 351 351 352 352 351 351 350 349 347 347 348 349 349
342 341 341 340 339 338 337 337 336 336 338 339 340 340 341 341 341 341 342 342 342 342 342 341 342 341 340 339 338 339 340 340 341 343 343 343 343 343 344 345 345 346 346 347 348 349 349 349 351 351 351 351 352 352 352 351 349 348 347 347 348 348 349
340 340 340 339 338 337 336 336 337 338 339 339 339 339 340 341 340 341 342 342 342 342 340 340 342 341 340 339 339 339 340 340 340 342 343 342 342 342 343 344 344 345 346 346 347 348 348 347 348 349 350 351 352 352 352 351 349 348 347 348 349 349 350
339 339 338 337 336 336 335 336 338 338 338 337 338 338 339 340 340 341 341 341 341 341 340 340 341 341 341 340 338 338 339 339 339 340 341 341 341 341 341 342 343 345 345 346 347 348 348 347 347 347 348 350 351 351 350 349 349 349 349 349 349 349 348
338 338 336 335 335 335 335 336 338 338 337 337 338 338 339 340 340 340 341 341 341 340 339 338 340 341 341 340 339 338 339 339 339 339 339 340 340 338 337 339 342 344 344 346 347 347 347 347 346 346 347 349 350 350 349 349 348 347 347 345 343 342 341
Wind_Speed
15 14 13 12 13 13 14 17 18 18 18 18 17 16 17 18 17 17 19 19 17 17 17 18 20 22 22 22 24 25 26 25 24 23 21 20 19 19 19 19 18 18 19 20 18 16 16 16 17 18 18 18 18 18 17 18 18 18 19 18 17 16 16
16 15 13 12 13 12 12 13 15 16 17 17 17 15 15 17 19 19 19 18 17 17 18 19 22 23 22 24 26 26 25 25 24 23 22 20 19 19 19 19 18 18 18 18 17 15 15 14 15 16 17 18 17 16 17 17 18 19 19 18 15 15 16
17 15 15 13 12 12 11 12 12 14 15 16 16 16 14 16 19 20 18 17 17 17 18 20 23 24 24 25 27 26 25 25 25 25 24 22 21 20 20 19 18 17 17 17 16 15 15 14 15 16 17 18 17 16 16 16 16 18 19 17 15 15 15
17 16 15 14 12 11 11 12 13 12 13 14 16 16 14 16 19 19 18 16 16 17 19 22 23 24 25 26 28 27 26 27 27 26 25 24 23 21 20 19 18 18 18 17 16 15 15 14 14 15 17 18 18 18 18 17 16 17 18 18 16 15 14
18 16 15 15 14 13 12 12 14 13 13 13 14 15 15 16 18 18 18 17 16 17 19 21 23 24 25 27 28 28 28 29 29 27 26 25 23 21 20 20 20 20 21 20 19 18 17 15 14 15 17 18 17 18 19 17 17 18 18 18 17 15 14
18 17 16 16 15 14 14 13 14 14 13 12 12 13 14 16 17 18 18 18 16 17 18 21 23 24 25 27 28 29 29 29 29 28 27 27 25 23 21 21 21 21 20 20 20 20 19 17 15 16 17 17 16 17 17 17 18 19 18 17 17 16 15
17 16 14 15 14 14 14 15 16 15 13 12 11 12 15 16 17 18 18 18 18 17 19 21 23 25 25 26 28 30 30 31 31 29 28 27 26 24 23 22 22 22 20 18 18 20 20 19 18 18 17 18 18 18 17 18 19 19 19 18 18 17 16
13 14 13 13 12 13 13 14 16 17 15 14 12 13 16 17 19 19 19 19 19 19 19 21 23 25 26 27 28 30 32 32 31 29 28 27 26 26 24 23 23 22 21 19 18 19 20 20 21 21 21 20 20 20 20 19 20 20 19 19 19 19 18
9 11 13 12 11 12 12 13 15 16 16 15 13 13 15 18 20 21 20 20 20 21 20 21 22 24 25 26 28 30 31 31 31 29 28 27 27 26 25 23 21 22 23 22 20 20 20 21 21 22 24 24 22 21 22 21 20 20 20 19 19 20 19
7 10 11 11 10 10 11 14 15 16 15 15 14 13 14 18 21 22 22 22 22 22 21 21 22 22 24 26 27 28 29 29 29 29 28 28 27 25 23 21 21 22 22 22 22 22 21 21 21 21 23 25 24 23 23 24 23 21 20 18 18 19 19
7 8 8 8 9 8 8 13 18 17 15 15 15 14 13 17 20 22 23 24 24 23 23 23 22 21 22 23 25 27 28 28 28 28 28 27 27 26 23 22 22 22 21 21 21 22 22 22 21 21 21 23 24 23 22 22 22 22 22 19 16 15 17
8 7 6 5 6 8 7 11 16 17 15 14 14 14 14 16 18 19 21 23 24 24 25 25 24 24 23 22 22 24 25 26 27 27 27 27 27 27 26 24 24 23 22 22 22 22 23 23 23 22 22 22 23 22 20 19 19 21 23 21 18 16 16
8 6 6 4 5 7 8 9 13 14 15 14 14 14 15 16 16 17 19 22 23 24 26 27 27 27 26 25 23 23 23 25 26 24 23 24 25 28 28 27 25 25 25 24 24 24 24 25 25 24 23 23 23 22 21 19 18 19 21 21 20 19 19
8 7 7 5 5 5 6 7 9 11 13 13 13 13 14 15 15 16 17 20 22 23 26 28 29 30 29 27 26 26 25 24 24 23 20 19 21 25 29 29 27 26 26 26 25 25 26 26 26 26 25 24 23 22 22 22 20 20 21 21 20 20 20
11 10 9 8 7 6 5 5 6 9 11 13 13 13 14 14 13 13 14 17 20 22 25 28 30 31 31 28 27 29 28 25 24 25 23 21 20 21 25 29 30 29 28 28 27 26 26 26 27 28 27 27 26 24 23 24 24 22 21 21 21 20 21
13 12 10 10 9 8 6 5 4 5 7 10 13 14 13 12 11 11 13 16 19 21 24 27 30 32 34 31 28 28 30 29 28 27 27 27 25 22 22 25 29 30 29 29 29 28 27 26 28 29 28 28 29 28 25 24 25 24 24 23 22 21 21
15 14 12 11 10 7 6 6 5 4 4 6 8 10 10 11 12 13 13 14 17 19 22 26 29 32 34 34 31 28 29 32 32 31 30 30 29 27 26 25 26 28 28 29 29 28 28 27 27 30 30 27 28 30 29 26 26 27 28 27 25 23 23
13 14 14 12 10 8 7 7 6 4 4 4 4 5 7 11 12 11 11 12 15 18 20 23 27 30 33 34 33 31 29 31 34 35 34 32 31 30 29 29 28 28 28 30 30 29 30 29 28 29 31 29 28 29 30 28 26 26 28 30 29 26 24
8 12 13 12 10 9 8 7 5 4 4 4 4 4 5 9 10 10 10 11 12 15 17 19 23 27 31 32 33 34 31 30 33 36 36 35 35 33 31 31 32 31 31 31 32 32 31 32 31 30 31 31 31 30 29 28 26 24 25 29 32 30 27
9 11 11 10 9 9 8 7 5 5 5 4 5 6 6 9 10 9 10 10 11 14 15 17 19 23 26 29 31 32 32 32 33 35 36 36 36 36 35 35 35 34 34 33 33 33 33 33 33 33 32 32 32 31 31 30 28 25 23 25 30 32 31
10 10 9 8 8 8 9 8 7 7 6 6 6 8 8 10 11 11 12 12 12 13 15 16 18 19 21 24 26 28 29 31 33 34 35 35 36 37 38 38 37 35 34 34 34 35 35 34 33 34 35 34 32 31 31 31 29 26 23 23 25 27 29
8 7 6 5 6 6 7 8 8 9 9 9 10 11 12 13 14 14 15 15 15 15 16 18 20 20 19 21 22 24 26 28 30 33 34 35 36 38 39 39 38 36 34 34 35 36 37 36 33 32 34 36 35 32 31 31 30 27 25 24 23 24 26
6 5 4 4 4 5 6 6 7 8 9 10 12 13 15 16 17 17 19 19 19 18 18 19 21 21 21 22 22 22 22 24 27 31 33 34 36 38 39 39 39 38 37 36 35 35 37 38 37 33 31 34 36 35 33 32 31 29 28 25 24 26 27
6 6 6 7 6 6 6 6 6 6 8 10 12 14 15 16 17 18 18 19 19 19 19 19 19 19 20 21 22 22 22 23 26 29 31 34 35 37 38 39 39 39 39 38 37 36 36 38 39 38 34 33 35 37 36 34 31 30 29 28 26 27 27
9 8 8 9 8 7 6 6 6 7 8 9 11 13 14 15 16 17 17 18 18 18 17 17 18 19 19 19 20 21 22 23 25 28 30 33 35 36 37 37 38 38 40 41 41 41 39 37 38 40 40 36 33 35 35 34 31 31 31 30 29 28 27
10 10 9 8 7 7 7 7 9 9 9 9 10 11 12 14 15 15 15 15 16 17 16 16 18 19 20 20 20 21 22 23 25 27 29 30 32 34 35 36 36 38 41 43 43 44 44 41 37 37 41 40 35 33 33 33 32 32 32 31 30 29 28
9 8 7 7 7 8 8 10 11 11 10 10 11 11 11 12 13 13 13 13 14 14 15 15 16 16 16 17 19 21 24 26 27 29 30 30 30 30 33 34 35 37 39 41 41 41 42 42 38 36 37 39 38 35 34 33 33 33 32 31 31 30 30
9 8 8 9 9 8 9 9 10 10 11 12 12 12 11 12 13 13 13 14 14 13 13 13 12 13 14 16 18 20 23 27 29 30 30 30 31 31 32 33 35 36 38 39 40 40 39 38 38 36 34 35 37 37 36 35 35 34 33 33 32 32 32
10 9 9 9 8 8 8 8 9 10 11 12 12 12 11 11 12 12 13 14 15 14 14 12 12 13 15 16 17 18 19 22 26 28 28 28 29 30 31 32 33 35 36 37 37 37 36 35 36 37 36 36 37 38 38 37 36 35 35 34 33 32 32
11 11 10 9 8 7 7 8 9 10 10 10 10 10 9 9 10 11 12 13 14 14 13 13 13 15 15 16 17 17 17 18 21 24 27 27 27 28 29 30 31 31 33 34 34 34 33 33 34 37 39 40 40 40 38 37 36 36 35 34 33 32 31
10 11 10 9 8 7 7 8 8 9 9 9 8 9 9 10 10 11 11 11 11 11 11 10 11 12 13 14 15 17 19 20 21 22 25 27 27 27 28 29 29 29 29 30 31 31 33 34 37 38 39 41 43 42 40 38 37 36 35 34 32 31 31
11 10 9 8 7 6 7 8 8 8 8 8 9 10 11 10 10 10 9 9 8 7 7 7 7 9 10 11 13 16 18 18 17 18 21 24 25 27 27 27 27 27 27 27 29 31 33 35 37 38 38 40 44 44 42 40 39 38 37 35 33 31 30
11 10 9 8 6 6 7 7 7 7 7 8 11 12 11 10 9 9 8 7 6 5 5 6 6 8 10 11 13 14 14 12 11 12 15 18 22 25 27 27 27 27 28 28 29 32 34 36 38 38 37 38 41 43 43 42 40 39 37 35 34 32 31
10 9 8 7 6 6 7 7 7 7 8 9 11 12 11 10 9 8 7 6 5 4 4 5 5 8 10 12 12 11 10 9 10 11 13 13 16 21 25 27 26 26 27 27 29 32 34 36 39 39 38 38 40 42 43 42 40 38 36 34 33 31 30
9 8 7 6 6 6 7 7 7 8 9 10 10 10 10 11 10 7 6 5 5 4 4 4 4 6 9 11 10 8 7 9 11 12 13 14 12 14 19 22 24 25 26 26 26 28 28 31 34 36 37 39 40 42 42 41 38 34 33 32 30 27 25
8 7 6 5 6 7 7 7 6 7 9 10 10 9 9 10 9 7 6 5 5 5 4 2 3 4 5 7 7 6 7 9 10 11 11 12 11 11 13 15 18 20 21 21 23 24 23 24 26 29 32 36 38 38 37 35 33 31 29 27 24 22 21
7 6 5 4 6 6 6 6 6 7 8 8 8 7 9 9 8 8 8 6 5 6 4 2 1 3 3 5 6 6 6 8 9 9 9 10 10 10 11 13 16 18 19 19 21 22 21 20 21 24 27 31 32 31 29 27 26 26 24 22 20 20 19
6 5 3 4 5 5 5 5 5 6 6 5 3 5 8 9 9 8 8 6 6 6 4 2 2 3 1 3 4 5 6 7 8 7 6 7 9 6 4 8 13 17 18 19 19 18 19 20 21 23 24 25 25 24 25 24 22 20 18 16 15 15 14
Wind_Direction
176 181 183 192 199 197 205 216 214 210 211 211 210 213 212 212 214 204 195 194 193 192 194 195 195 195 195 190 187 189 191 194 197 196 196 197 197 195 194 197 201 199 194 193 196 196 194 198 200 198 199 199 199 193 190 198 204 207 212 216 219 223 225
190 194 196 199 200 197 200 208 211 210 212 214 211 209 208 205 202 195 192 193 190 191 197 195 190 190 191 189 186 188 191 193 195 193 191 192 194 197 196 198 201 201 197 194 194 194 194 199 202 202 203 204 202 194 191 201 209 212 218 222 226 228 227
199 202 203 204 200 193 187 187 193 200 207 209 203 200 200 198 194 189 190 190 185 188 195 193 189 187 188 189 188 188 190 189 189 188 188 189 192 196 198 201 204 206 205 202 200 198 197 200 206 208 208 207 204 200 199 205 213 220 224 227 230 230 227
204 210 208 205 196 186 184 183 185 191 200 202 195 193 196 193 191 191 192 189 183 186 192 192 189 187 187 190 190 190 189 187 187 187 188 192 194 197 201 204 207 211 214 216 214 211 207 206 210 213 212 209 207 206 207 209 216 223 227 229 232 231 227
205 209 207 202 195 191 192 188 188 193 198 199 194 192 193 191 192 196 196 193 188 188 191 190 189 187 188 190 190 189 189 189 190 189 191 195 198 201 204 207 210 212 216 220 223 223 220 215 217 222 217 211 211 213 214 215 219 224 228 230 233 234 231
203 204 203 202 200 199 200 196 197 201 202 203 201 197 196 196 198 200 200 197 193 191 192 191 190 189 188 188 189 188 188 190 191 193 195 197 199 203 206 209 213 214 215 217 220 223 223 218 218 222 218 212 216 222 224 225 223 225 229 231 233 234 233
201 202 200 201 204 205 204 202 203 206 209 211 211 208 207 205 204 204 203 201 198 195 194 193 193 192 191 190 190 189 190 191 192 194 198 200 200 202 205 208 211 213 212 210 212 217 220 220 220 221 222 221 223 229 236 236 229 228 231 234 234 233 233
192 199 197 200 206 208 207 205 204 206 210 213 215 213 210 209 207 205 205 205 203 201 198 196 196 195 193 193 193 192 192 192 194 197 200 202 203 203 205 207 209 211 210 207 209 214 216 219 222 225 228 229 228 230 237 240 235 232 233 236 236 234 233
181 190 194 198 203 210 216 212 207 207 209 212 216 215 210 208 207 205 207 208 207 206 205 202 201 199 197 197 196 195 195 196 198 200 203 204 204 205 207 209 208 207 207 208 212 216 218 219 222 225 227 227 228 229 234 240 239 234 233 236 237 236 234
178 185 190 196 201 211 218 215 212 212 213 213 214 215 211 208 207 208 210 211 211 212 211 208 205 203 202 203 202 201 200 202 204 206 208 207 207 206 205 206 204 201 205 211 214 218 221 220 220 223 224 224 227 232 236 240 240 236 232 233 238 240 237
165 176 185 198 209 215 213 210 211 214 217 218 216 213 211 209 211 212 213 213 214 215 214 211 209 206 206 207 207 208 208 207 209 211 213 213 211 207 203 202 204 204 208 215 217 218 219 218 219 221 221 223 226 231 235 237 239 238 234 230 233 241 241
166 170 169 178 200 211 210 203 207 212 217 220 217 211 208 208 210 213 214 214 215 213 211 211 209 208 211 212 211 212 213 211 211 213 216 217 215 210 205 203 206 210 213 218 219 218 217 216 218 221 223 226 227 229 230 232 237 238 234 231 231 239 245
180 181 177 173 177 197 206 202 206 210 212 215 217 215 213 212 211 214 216 215 213 213 212 211 209 207 211 217 219 218 217 214 211 209 213 218 218 214 210 207 210 215 217 220 221 219 220 221 221 223 227 230 231 231 228 227 231 234 232 230 232 239 244
189 184 189 195 175 178 196 204 210 211 209 211 216 221 223 222 219 218 218 215 214 215 213 209 209 208 210 217 222 222 220 217 212 209 212 218 220 218 213 210 213 218 220 221 220 219 223 226 225 226 230 232 233 233 229 224 226 229 229 230 233 238 243
199 193 194 198 190 187 193 202 212 215 217 219 221 223 224 224 221 214 213 214 213 213 210 207 208 210 210 214 220 222 222 220 215 214 216 218 218 219 217 213 214 217 221 222 222 222 224 227 227 227 230 233 234 233 229 225 225 226 228 230 233 238 242
204 201 199 197 194 196 201 205 213 221 228 231 232 230 226 226 226 218 213 214 212 211 211 210 211 212 213 215 218 220 221 221 219 219 220 221 219 218 219 218 215 215 218 221 222 223 226 229 229 228 230 234 235 232 229 226 226 227 227 229 231 236 240
212 208 205 201 199 201 204 207 220 239 247 242 237 235 236 240 242 234 224 219 217 215 214 215 216 214 215 218 220 221 222 221 220 220 220 222 223 221 221 221 218 215 216 219 220 220 224 229 231 228 229 232 233 230 228 226 228 230 229 229 230 233 237
218 215 209 204 202 203 201 205 226 256 269 265 244 236 246 253 254 251 241 230 224 222 219 219 220 219 218 220 222 222 223 222 221 221 222 222 222 223 223 223 222 221 220 222 222 221 222 226 229 228 227 229 230 228 228 229 232 233 232 230 228 229 233
206 208 207 206 205 204 202 207 224 240 252 268 268 255 256 261 265 266 258 247 239 233 227 224 224 223 223 224 224 224 225 226 224 223 225 225 224 223 223 223 224 225 226 226 227 226 224 226 229 230 229 229 230 230 231 233 236 235 231 227 225 226 229
177 185 191 194 196 198 204 211 216 221 231 247 253 253 261 269 270 268 264 259 251 243 238 234 232 230 229 228 227 227 229 231 230 228 229 230 228 226 226 225 225 228 230 230 228 229 228 228 230 232 231 229 229 231 232 234 237 239 235 227 224 225 229
178 183 187 190 194 202 211 219 224 229 230 225 232 248 260 267 270 269 267 263 254 245 241 240 241 241 239 236 234 233 234 235 235 233 232 232 231 230 228 227 227 229 233 233 230 231 232 230 230 231 231 228 227 228 231 233 236 239 239 234 229 227 229
192 200 206 206 211 218 221 227 231 234 236 234 239 248 252 255 260 262 262 261 254 247 242 239 239 241 242 242 242 241 241 240 240 239 238 236 235 232 229 227 227 230 233 234 233 234 235 234 232 230 230 229 227 227 229 231 233 235 237 238 235 232 232
202 207 210 204 213 223 224 232 236 239 247 248 246 249 253 257 258 258 259 258 255 252 249 245 242 239 239 241 244 247 246 243 243 243 243 242 240 236 233 232 231 232 234 235 234 233 234 235 235 233 230 229 228 228 229 229 231 234 236 235 234 234 235
180 192 198 195 202 214 220 231 242 252 262 260 254 252 253 257 260 261 261 262 262 261 260 258 255 251 246 242 242 247 250 248 246 245 244 245 244 241 240 239 238 238 239 239 237 235 235 237 237 237 235 231 230 229 229 228 230 234 234 231 231 233 234
162 172 180 186 200 217 228 245 264 272 272 266 260 256 252 252 256 259 260 261 262 262 261 262 263 261 258 253 250 251 252 252 251 250 249 248 248 247 246 245 244 244 243 242 239 237 236 237 238 239 238 236 233 230 229 231 233 234 233 231 231 233 233
158 165 172 178 197 220 238 260 272 273 270 263 264 265 258 253 251 252 255 258 257 255 253 253 255 256 259 262 264 264 262 260 257 255 253 251 250 250 250 249 248 246 244 243 241 239 236 235 237 239 239 238 235 231 231 233 233 232 233 234 234 234 232
164 177 191 198 210 228 249 264 267 265 266 268 271 271 264 257 252 249 251 253 251 249 249 252 257 262 267 270 270 270 269 266 264 261 259 256 255 252 251 251 250 248 247 245 245 245 241 235 235 237 235 234 235 233 230 230 230 231 233 235 235 235 234
187 200 209 215 230 244 253 256 255 259 268 274 276 271 263 258 253 246 243 243 243 246 250 257 266 273 276 278 275 272 269 266 264 263 263 261 258 254 252 250 249 248 248 247 247 249 244 236 233 235 231 229 232 232 230 229 230 231 235 237 238 238 238
196 205 210 221 241 249 247 247 252 262 273 277 276 272 265 258 253 247 241 239 242 249 254 261 271 276 279 281 278 273 270 267 262 260 260 260 259 257 254 252 250 247 247 247 248 249 244 238 235 234 229 226 228 230 231 231 232 234 237 239 241 241 241
203 212 221 234 244 245 245 254 260 268 275 276 273 270 266 259 253 250 245 242 245 252 258 266 275 281 284 284 279 273 271 271 266 261 257 255 255 255 255 254 253 251 248 247 249 249 246 242 239 234 229 226 226 228 230 231 233 235 236 239 241 243 243
210 219 228 237 240 244 253 261 264 269 273 273 269 263 258 251 245 243 245 248 250 255 265 279 288 290 290 288 283 277 273 273 272 268 263 257 252 252 253 253 253 254 252 249 248 246 245 242 239 236 232 226 224 225 228 230 232 234 235 237 241 241 241
206 218 228 232 234 246 256 259 263 269 273 270 262 256 253 250 245 241 243 250 260 271 284 300 309 309 307 301 292 285 279 277 276 276 275 268 258 253 253 253 252 253 252 249 246 243 241 240 237 234 231 226 224 225 226 228 230 233 234 237 239 239 238
203 214 225 232 239 248 255 260 267 276 279 266 253 250 252 251 246 241 240 246 260 281 299 311 325 336 335 324 309 297 292 294 298 297 292 282 267 258 254 252 250 250 249 246 243 240 239 237 235 233 230 226 224 225 225 226 229 232 234 236 237 236 234
204 209 216 229 243 253 260 268 273 272 265 254 249 250 250 248 245 244 248 251 256 276 302 310 326 347 351 341 326 313 310 320 324 318 312 300 275 258 253 250 247 246 247 247 245 243 240 236 234 233 232 229 225 223 223 224 226 228 230 233 235 235 234
203 206 212 225 244 258 267 275 276 266 253 252 259 259 248 245 248 249 250 251 259 285 311 313 319 340 353 354 347 339 339 341 334 325 323 320 300 264 249 245 243 243 244 244 245 247 246 241 234 230 229 228 226 223 221 221 222 224 227 231 234 234 233
202 210 218 230 248 264 274 278 271 262 260 266 273 263 240 239 247 248 241 245 261 278 288 308 320 324 350 9 13 12 1 347 336 332 335 337 326 291 260 243 238 239 241 241 243 246 246 241 236 232 228 225 224 223 223 224 223 222 223 226 227 227 227
210 221 228 246 262 271 277 270 256 261 273 282 278 249 223 219 227 232 232 235 251 263 268 296 319 294 330 17 25 25 10 352 343 340 344 350 341 311 275 250 236 231 233 239 244 243 239 233 232 233 228 221 217 217 219 220 220 218 218 219 221 223 227
211 217 227 261 274 274 267 256 252 266 282 287 257 215 208 212 224 232 226 220 229 243 248 258 267 260 285 17 26 31 25 15 11 5 354 359 7 360 282 246 235 224 221 226 229 226 223 223 224 224 219 213 211 214 214 210 207 208 208 207 206 207 206